GW5080 Weather Reports


time (UTC)temp
C
wind
direction
speed
KPH
gust
KPH
rain 1hr
cm
rain 24hr
cm
rain mn
cm
humidity
%
barometer
mb
20260510211504 29 292 6.4 19.3 0.00 0.00 0.00 38 1014.1
20260510211005 28 312 1.6 3.2 0.00 0.00 0.00 39 1014.3
20260510210505 28 328 1.6 3.2 0.00 0.00 0.00 41 1014.3
20260510210005 28 285 3.2 8.0 0.00 0.00 0.00 39 1014.3
20260510205504 28 242 8.0 11.3 0.00 0.00 0.00 39 1014.1
20260510205004 29 222 8.0 20.9 0.00 0.00 0.00 41 1014.1
20260510204504 29 177 8.0 11.3 0.00 0.00 0.00 38 1014.1
20260510204004 29 270 8.0 12.9 0.00 0.00 0.00 40 1014.2
20260510203004 28 177 4.8 11.3 0.00 0.00 0.00 40 1014.2
20260510202504 29 235 8.0 12.9 0.00 0.00 0.00 38 1014.4
20260510201504 28 282 6.4 11.3 0.00 0.00 0.00 39 1014.4
20260510201005 28 297 3.2 9.7 0.00 0.00 0.00 43 1014.3
20260510200504 28 247 9.7 19.3 0.00 0.00 0.00 39 1014.3
20260510200006 29 211 6.4 14.5 0.00 0.00 0.00 40 1014.3
20260510195504 28 312 4.8 9.7 0.00 0.00 0.00 42 1014.3
20260510195004 28 302 1.6 9.7 0.00 0.00 0.00 43 1014.3
20260510194004 28 228 3.2 9.7 0.00 0.00 0.00 43 1014.5
20260510193004 28 0 4.8 11.3 0.00 0.00 0.00 46 1014.5
20260510192504 28 298 8.0 9.7 0.00 0.00 0.00 43 1014.7
20260510192004 28 337 8.0 11.3 0.00 0.00 0.00 43 1014.7
20260510191004 28 343 9.7 16.1 0.00 0.00 0.00 44 1015.0
20260510190004 27 107 3.2 3.2 0.00 0.00 0.00 45 1015.0
20260510185504 27 274 3.2 11.3 0.00 0.00 0.00 43 1015.0
20260510185004 28 300 3.2 8.0 0.00 0.00 0.00 46 1015.0
20260510184504 27 226 1.6 4.8 0.00 0.00 0.00 50 1015.0
20260510184004 27 182 3.2 4.8 0.00 0.00 0.00 54 1015.0
20260510183504 27 186 3.2 4.8 0.00 0.00 0.00 53 1015.0
20260510183004 27 180 4.8 9.7 0.00 0.00 0.00 52 1015.1
20260510182504 27 182 8.0 9.7 0.00 0.00 0.00 52 1015.3
20260510182004 26 182 4.8 9.7 0.00 0.00 0.00 54 1015.3
20260510181506 26 180 4.8 9.7 0.00 0.00 0.00 52 1015.3
20260510181004 26 201 8.0 11.3 0.00 0.00 0.00 53 1015.3
20260510180504 27 192 8.0 12.9 0.00 0.00 0.00 54 1015.3
20260510180005 27 156 3.2 8.0 0.00 0.00 0.00 54 1015.3
20260510175504 27 146 3.2 11.3 0.00 0.00 0.00 51 1015.4
20260510175005 27 225 4.8 9.7 0.00 0.00 0.00 51 1015.4
20260510174504 27 283 3.2 8.0 0.00 0.00 0.00 50 1015.4
20260510174004 27 356 4.8 8.0 0.00 0.00 0.00 54 1015.4
20260510173504 26 316 1.6 9.7 0.00 0.00 0.00 55 1015.4
20260510173004 26 243 4.8 9.7 0.00 0.00 0.00 52 1015.4
20260510172505 27 227 6.4 11.3 0.00 0.00 0.00 55 1015.5
20260510172004 26 172 3.2 9.7 0.00 0.00 0.00 51 1015.5
20260510171505 26 157 4.8 11.3 0.00 0.00 0.00 57 1015.5
20260510171004 27 207 9.7 16.1 0.00 0.00 0.00 54 1015.5
20260510170004 26 196 4.8 9.7 0.00 0.00 0.00 54 1015.5
20260510165504 26 164 1.6 4.8 0.00 0.00 0.00 56 1015.6
20260510165004 26 270 3.2 4.8 0.00 0.00 0.00 56 1015.6
20260510163504 26 255 6.4 9.7 0.00 0.00 0.00 57 1015.9
20260510162504 26 237 4.8 9.7 0.00 0.00 0.00 58 1015.8
20260510162004 26 213 3.2 8.0 0.00 0.00 0.00 55 1015.8
20260510161004 26 36 4.8 11.3 0.00 0.00 0.00 54 1016.0
20260510155504 26 42 6.4 12.9 0.00 0.00 0.00 59 1016.2
20260510155004 25 89 4.8 9.7 0.00 0.00 0.00 59 1016.2
20260510154504 25 45 6.4 11.3 0.00 0.00 0.00 60 1016.2
20260510153504 25 324 4.8 11.3 0.00 0.00 0.00 59 1016.1
20260510153004 25 321 4.8 19.3 0.00 0.00 0.00 62 1016.1
20260510152504 25 1 8.0 16.1 0.00 0.00 0.00 62 1016.0
20260510152004 25 336 6.4 11.3 0.00 0.00 0.00 64 1016.0
20260510151504 25 221 4.8 11.3 0.00 0.00 0.00 68 1016.0
20260510151004 25 200 3.2 11.3 0.00 0.00 0.00 67 1016.1
20260510150505 25 211 4.8 8.0 0.00 0.00 0.00 67 1016.1
20260510150004 25 334 4.8 8.0 0.00 0.00 0.00 66 1016.1
20260510144004 24 327 6.4 9.7 0.00 0.00 0.00 70 1016.0
20260510143504 24 310 4.8 8.0 0.00 0.00 0.00 71 1016.0
20260510143004 24 293 4.8 9.7 0.00 0.00 0.00 70 1016.0
20260510142504 23 304 3.2 8.0 0.00 0.00 0.00 72 1016.1
20260510141504 23 282 3.2 9.7 0.00 0.00 0.00 72 1016.1
20260510140504 23 240 4.8 8.0 0.00 0.00 0.00 75 1016.0
20260510140004 23 308 3.2 8.0 0.00 0.00 0.00 73 1016.0
20260510135504 23 288 3.2 9.7 0.00 0.00 0.00 75 1016.0
20260510135004 22 349 3.2 9.7 0.00 0.00 0.00 75 1016.0
20260510134503 22 355 3.2 9.7 0.00 0.00 0.00 77 1015.9
20260510134004 22 294 4.8 9.7 0.00 0.00 0.00 77 1015.7
20260510133504 22 290 3.2 9.7 0.00 0.00 0.00 76 1015.7
20260510133004 22 342 4.8 8.0 0.00 0.00 0.00 76 1015.7
20260510132504 22 187 3.2 4.8 0.00 0.00 0.00 78 1015.8
20260510132004 22 279 4.8 8.0 0.00 0.00 0.00 79 1015.8
20260510131505 21 312 3.2 4.8 0.00 0.00 0.00 81 1015.7
20260510130504 21 339 4.8 11.3 0.00 0.00 0.00 85 1015.5
20260510130004 20 342 3.2 9.7 0.00 0.00 0.00 89 1015.6
20260510125505 20 319 3.2 8.0 0.00 0.00 0.00 91 1015.6
20260510125004 20 204 1.6 4.8 0.00 0.00 0.00 94 1015.6
20260510124503 19 282 3.2 4.8 0.00 0.00 0.00 95 1015.6
20260510123503 18 219 1.6 1.6 0.00 0.00 0.00 96 1015.5
20260510123004 18 295 3.2 8.0 0.00 0.00 0.00 96 1015.6
20260510122004 18 298 1.6 3.2 0.00 0.00 0.00 96 1015.6
20260510121503 17 296 1.6 1.6 0.00 0.00 0.00 96 1015.6
20260510121003 17 292 0.0 1.6 0.00 0.00 0.00 96 1015.4
20260510120504 17 273 0.0 1.6 0.00 0.00 0.00 96 1015.4
20260510115505 16 257 0.0 0.0 0.00 0.00 0.00 96 1015.1
20260510115004 15 257 0.0 0.0 0.00 0.00 0.00 96 1015.1
20260510114504 15 257 0.0 0.0 0.00 0.00 0.00 96 1015.1
20260510114004 15 257 0.0 0.0 0.00 0.00 0.00 96 1015.0
20260510113504 15 257 0.0 0.0 0.00 0.00 0.00 96 1015.0
20260510113003 15 257 0.0 0.0 0.00 0.00 0.00 96 1015.0
20260510112504 15 257 0.0 1.6 0.00 0.00 0.00 96 1015.0
20260510112008 15 257 0.0 1.6 0.00 0.00 0.00 96 1015.0
20260510111504 14 257 0.0 1.6 0.00 0.00 0.00 96 1015.0
20260510111006 14 2 0.0 1.6 0.00 0.00 0.00 96 1014.7
20260510110504 14 114 0.0 1.6 0.00 0.00 0.00 96 1014.7
20260510110005 14 46 0.0 0.0 0.00 0.00 0.00 96 1014.7
20260510105504 14 271 0.0 0.0 0.00 0.00 0.00 96 1014.5
20260510105004 14 271 0.0 3.2 0.00 0.00 0.00 96 1014.5
20260510104504 14 325 1.6 1.6 0.00 0.00 0.00 96 1014.4
20260510104004 13 325 0.0 0.0 0.00 0.00 0.00 96 1014.1
20260510103503 13 325 0.0 0.0 0.00 0.00 0.00 96 1014.1
20260510103004 13 325 0.0 1.6 0.00 0.00 0.00 95 1014.1
20260510102504 14 325 1.6 1.6 0.00 0.00 0.00 96 1013.9
20260510101504 14 325 1.6 1.6 0.00 0.00 0.00 96 1013.9
20260510100504 14 325 1.6 1.6 0.00 0.00 0.00 96 1013.9
20260510100004 13 325 1.6 1.6 0.00 0.00 0.00 95 1013.8
20260510095004 13 325 0.0 0.0 0.00 0.00 0.00 96 1013.7
20260510094504 13 325 0.0 1.6 0.00 0.00 0.00 95 1013.6
20260510094003 13 325 0.0 0.0 0.00 0.00 0.00 95 1013.5
20260510093503 13 325 0.0 0.0 0.00 0.00 0.00 95 1013.5
20260510093004 13 325 1.6 3.2 0.00 0.00 0.00 95 1013.5
20260510092504 13 325 1.6 3.2 0.00 0.00 0.00 95 1013.3
20260510092005 13 209 0.0 1.6 0.00 0.00 0.00 95 1013.3
20260510091503 13 209 1.6 1.6 0.00 0.00 0.00 95 1013.3
20260510090505 13 209 1.6 1.6 0.00 0.00 0.00 95 1013.1
20260510090004 13 209 0.0 0.0 0.00 0.00 0.00 95 1013.1
20260510085503 13 209 0.0 0.0 0.00 0.00 0.00 95 1013.0
20260510085004 13 209 0.0 1.6 0.00 0.00 0.00 95 1013.0
20260510084504 13 209 1.6 1.6 0.00 0.00 0.00 95 1013.0
20260510083503 13 209 1.6 1.6 0.00 0.00 0.00 95 1013.0
20260510083004 13 209 0.0 0.0 0.00 0.00 0.00 95 1013.0
20260510082503 13 209 0.0 1.6 0.00 0.00 0.00 95 1012.9
20260510082003 13 209 0.0 1.6 0.00 0.00 0.00 95 1012.9
20260510081503 13 209 0.0 0.0 0.00 0.00 0.00 95 1012.9
20260510081005 13 209 0.0 0.0 0.00 0.00 0.00 95 1012.8
20260510080504 13 209 0.0 0.0 0.00 0.00 0.00 95 1012.8
20260510080004 13 209 0.0 0.0 0.00 0.00 0.00 95 1012.8
20260510075504 13 209 0.0 0.0 0.00 0.00 0.00 95 1012.9
20260510075004 13 209 0.0 1.6 0.00 0.00 0.00 95 1012.9
20260510074504 13 209 0.0 0.0 0.00 0.00 0.00 95 1012.9
20260510074004 13 209 0.0 1.6 0.00 0.00 0.00 95 1012.9
20260510073504 13 209 0.0 0.0 0.00 0.00 0.00 95 1012.9
20260510073004 13 209 0.0 0.0 0.00 0.00 0.00 95 1012.8
20260510072004 13 209 0.0 1.6 0.00 0.00 0.00 95 1012.6
20260510071504 13 209 1.6 3.2 0.00 0.00 0.00 95 1012.7
20260510071005 13 209 1.6 1.6 0.00 0.00 0.00 95 1012.9
20260510070505 13 209 0.0 0.0 0.00 0.00 0.00 95 1012.9
20260510070005 13 209 0.0 0.0 0.00 0.00 0.00 95 1012.9
20260510065505 14 209 0.0 0.0 0.00 0.00 0.00 95 1012.8
20260510064505 14 209 0.0 1.6 0.00 0.00 0.00 95 1012.7
20260510064006 14 209 1.6 3.2 0.00 0.00 0.00 95 1012.6
20260510063505 14 209 0.0 1.6 0.00 0.00 0.00 95 1012.6
20260510063005 14 209 0.0 0.0 0.00 0.00 0.00 94 1012.6
20260510062505 14 209 0.0 0.0 0.00 0.00 0.00 94 1012.5
20260510062005 14 209 0.0 0.0 0.00 0.00 0.00 94 1012.5
20260510061505 14 209 0.0 0.0 0.00 0.00 0.00 94 1012.6
20260510061005 14 209 0.0 0.0 0.00 0.00 0.00 94 1012.9
20260510060505 14 209 0.0 0.0 0.00 0.00 0.00 94 1012.9
20260510060005 14 209 0.0 0.0 0.00 0.00 0.00 94 1012.9
20260510055505 14 209 0.0 0.0 0.00 0.00 0.00 94 1012.9
20260510055005 14 209 0.0 0.0 0.00 0.00 0.00 94 1012.9
20260510054005 14 209 0.0 0.0 0.00 0.00 0.00 94 1013.0
20260510053505 14 209 0.0 0.0 0.00 0.00 0.00 94 1013.0
20260510053005 14 209 0.0 0.0 0.00 0.00 0.00 94 1013.1
20260510052005 14 209 0.0 0.0 0.00 0.00 0.00 94 1013.2
20260510051505 14 209 0.0 0.0 0.00 0.00 0.00 94 1013.3
20260510051005 14 209 0.0 0.0 0.00 0.00 0.00 94 1013.4
20260510050505 15 209 0.0 0.0 0.00 0.00 0.00 94 1013.4
20260510045505 15 209 0.0 0.0 0.00 0.00 0.00 94 1013.4
20260510045005 15 209 0.0 0.0 0.00 0.00 0.00 94 1013.4
20260510044505 15 209 0.0 1.6 0.00 0.00 0.00 94 1013.4
20260510044005 15 209 0.0 1.6 0.00 0.00 0.00 94 1013.3
20260510043005 15 209 0.0 0.0 0.00 0.00 0.00 94 1013.3
20260510042505 15 209 0.0 0.0 0.00 0.00 0.00 94 1013.2
20260510042005 15 209 0.0 1.6 0.00 0.00 0.00 94 1013.2
20260510041505 15 209 0.0 0.0 0.00 0.00 0.00 94 1013.2
20260510041005 15 209 0.0 1.6 0.00 0.00 0.00 93 1013.0
20260510040506 15 209 1.6 1.6 0.00 0.00 0.00 93 1013.0
20260510040005 15 220 1.6 1.6 0.00 0.00 0.00 93 1013.0
20260510034505 15 255 0.0 0.0 0.00 0.00 0.00 93 1013.0
20260510033505 15 255 0.0 0.0 0.00 0.00 0.00 93 1013.0
20260510032505 15 255 1.6 1.6 0.00 0.00 0.00 93 1012.9
20260510032005 16 219 0.0 3.2 0.00 0.00 0.00 93 1012.9
20260510031505 16 251 1.6 3.2 0.00 0.00 0.00 93 1012.9
20260510031005 16 325 0.0 1.6 0.00 0.00 0.00 93 1012.8
20260510030505 16 325 0.0 1.6 0.00 0.00 0.00 93 1012.8
20260510030005 16 325 0.0 1.6 0.00 0.00 0.00 92 1012.7
20260510025505 16 325 0.0 0.0 0.00 0.00 0.00 93 1012.6
20260510025004 16 325 0.0 1.6 0.00 0.00 0.00 92 1012.6
20260510024508 16 325 1.6 1.6 0.00 0.00 0.00 92 1012.6
20260510023005 16 325 0.0 0.0 0.00 0.00 0.00 92 1012.5
20260510022505 16 325 0.0 0.0 0.00 0.00 0.00 92 1012.5
20260510022005 16 325 0.0 0.0 0.00 0.00 0.00 92 1012.5
20260510020506 17 325 0.0 0.0 0.00 0.00 0.00 91 1012.6
20260510020005 17 325 1.6 1.6 0.00 0.00 0.00 91 1012.5
20260510015505 17 325 0.0 0.0 0.00 0.00 0.00 91 1012.3
20260510014505 17 325 0.0 0.0 0.00 0.00 0.00 91 1012.3
20260510014005 17 325 0.0 0.0 0.00 0.00 0.00 91 1012.0
20260510013505 17 325 0.0 0.0 0.00 0.00 0.00 91 1012.0
20260510012505 17 325 1.6 1.6 0.00 0.00 0.00 90 1012.0
20260510012005 17 325 0.0 1.6 0.00 0.00 0.00 90 1012.0
20260510010505 18 325 0.0 3.2 0.00 0.00 0.00 89 1012.0
20260510010005 18 325 1.6 3.2 0.00 0.00 0.00 89 1012.0
20260510005505 18 325 0.0 1.6 0.00 0.00 0.00 88 1011.8
20260510004505 19 325 1.6 1.6 0.00 0.00 0.00 87 1011.8
20260510004005 19 325 0.0 1.6 0.00 0.00 0.00 87 1011.7
20260510003505 19 325 1.6 3.2 0.00 0.00 0.00 87 1011.7
20260510003005 20 269 0.0 1.6 0.00 0.00 0.00 86 1011.7
20260510002005 20 269 0.0 1.6 0.00 0.00 0.00 85 1011.8
20260510001505 20 269 1.6 1.6 0.00 0.00 0.00 84 1011.8
20260510001005 20 269 1.6 1.6 0.00 0.00 0.00 83 1011.7
20260510000505 21 269 1.6 1.6 0.00 0.00 0.00 82 1011.7
20260510000005 21 269 0.0 0.0 0.00 0.00 0.00 82 1011.6
20260509235005 21 240 0.0 1.6 0.00 0.00 0.00 80 1011.4
20260509234505 22 184 0.0 1.6 0.00 0.00 0.00 79 1011.4
20260509234005 22 186 0.0 0.0 0.00 0.00 0.00 79 1010.9
20260509233505 22 186 0.0 1.6 0.00 0.00 0.00 77 1010.9
20260509233005 22 186 1.6 3.2 0.00 0.00 0.00 77 1010.9
20260509232504 22 195 1.6 3.2 0.00 0.00 0.00 76 1010.9
20260509231505 22 203 3.2 4.8 0.00 0.00 0.00 73 1010.9
20260509231005 22 204 3.2 8.0 0.00 0.00 0.00 73 1010.9
20260509230505 23 221 3.2 8.0 0.00 0.00 0.00 72 1010.9
20260509230005 23 224 1.6 4.8 0.00 0.00 0.00 72 1010.9
20260509225505 23 255 1.6 4.8 0.00 0.00 0.00 72 1010.9
20260509225005 23 213 3.2 4.8 0.00 0.00 0.00 72 1010.9
20260509224504 23 219 1.6 3.2 0.00 0.00 0.00 72 1010.9
20260509224005 23 249 3.2 8.0 0.00 0.00 0.00 72 1010.9
20260509223505 23 292 1.6 4.8 0.00 0.00 0.00 73 1010.9
20260509222505 22 241 3.2 9.7 0.00 0.00 0.00 72 1011.1
20260509222005 22 279 4.8 9.7 0.00 0.00 0.00 72 1011.1
20260509221504 22 254 3.2 9.7 0.00 0.00 0.00 72 1011.1
20260509221005 22 192 4.8 11.3 0.00 0.00 0.00 72 1011.0
20260509220504 23 228 3.2 9.7 0.00 0.00 0.00 72 1011.0
20260509220005 23 257 3.2 11.3 0.00 0.00 0.00 71 1011.0
20260509215005 23 201 6.4 20.9 0.00 0.00 0.00 71 1010.9
20260509214505 23 221 3.2 19.3 0.00 0.00 0.00 71 1010.9
20260509213005 22 243 9.7 16.1 0.00 0.00 0.00 71 1011.0
20260509212505 22 220 4.8 9.7 0.00 0.00 0.00 72 1011.0